TimeMDT,TemperatureF,Dew PointF,Humidity,Sea Level PressureIn,VisibilityMPH,Wind Direction,Wind SpeedMPH,Gust SpeedMPH,PrecipitationIn,Events,Conditions,WindDirDegrees,DateUTC
12:53 AM,64.9,50.0,58,29.84,10.0,WSW,9.2,-,N/A,,Clear,250,2013-08-24 06:53:00
1:53 AM,62.1,50.0,65,29.85,10.0,West,5.8,-,N/A,,Clear,270,2013-08-24 07:53:00
2:53 AM,62.1,48.9,62,29.85,10.0,West,5.8,-,N/A,,Clear,280,2013-08-24 08:53:00
3:53 AM,62.1,48.0,60,29.87,10.0,Calm,Calm,-,N/A,,Clear,0,2013-08-24 09:53:00
4:53 AM,61.0,48.9,64,29.88,10.0,Calm,Calm,-,N/A,,Clear,0,2013-08-24 10:53:00
5:53 AM,57.0,48.0,72,29.89,10.0,SE,3.5,-,N/A,,Clear,140,2013-08-24 11:53:00
6:53 AM,57.9,48.0,70,29.90,10.0,Calm,Calm,-,N/A,,Clear,0,2013-08-24 12:53:00
7:53 AM,60.1,48.9,67,29.91,10.0,Calm,Calm,-,N/A,,Clear,0,2013-08-24 13:53:00
8:53 AM,62.1,50.0,65,29.94,10.0,NE,3.5,-,N/A,,Clear,50,2013-08-24 14:53:00
9:53 AM,68.0,48.9,50,29.93,10.0,Calm,Calm,-,N/A,,Clear,0,2013-08-24 15:53:00
10:53 AM,72.0,50.0,46,29.93,10.0,Calm,Calm,-,N/A,,Clear,0,2013-08-24 16:53:00
11:53 AM,78.1,45.0,31,29.89,10.0,ENE,3.5,-,N/A,,Clear,60,2013-08-24 17:53:00
12:53 PM,82.0,46.0,28,29.87,10.0,ESE,5.8,-,N/A,,Clear,120,2013-08-24 18:53:00
1:53 PM,81.0,46.0,29,29.86,10.0,ESE,10.4,20.7,N/A,,Clear,110,2013-08-24 19:53:00
2:53 PM,84.9,46.9,27,29.84,10.0,East,13.8,-,N/A,,Clear,90,2013-08-24 20:53:00
3:32 PM,84.2,44.6,25,29.89,10.0,ESE,10.4,-,N/A,Thunderstorm,Partly Cloudy,120,2013-08-24 21:32:00
3:48 PM,84.2,46.4,27,29.88,10.0,ESE,12.7,-,N/A,,Partly Cloudy,110,2013-08-24 21:48:00
3:53 PM,84.9,46.0,26,29.82,10.0,ESE,11.5,-,N/A,,Clear,120,2013-08-24 21:53:00
4:53 PM,84.9,42.1,22,29.81,10.0,SE,6.9,-,N/A,,Clear,140,2013-08-24 22:53:00
5:53 PM,84.0,41.0,22,29.81,10.0,East,10.4,-,N/A,,Clear,100,2013-08-24 23:53:00
6:53 PM,82.9,41.0,23,29.82,10.0,ESE,9.2,-,N/A,,Partly Cloudy,120,2013-08-25 00:53:00
7:53 PM,80.1,41.0,25,29.81,10.0,Calm,Calm,-,N/A,,Mostly Cloudy,0,2013-08-25 01:53:00
8:53 PM,75.9,41.0,29,29.87,10.0,South,18.4,29.9,N/A,,Clear,190,2013-08-25 02:53:00
9:53 PM,73.0,46.0,38,29.93,9.0,WNW,11.5,-,N/A,,Overcast,300,2013-08-25 03:53:00
10:53 PM,69.1,48.9,49,29.96,9.0,North,12.7,-,N/A,,Overcast,10,2013-08-25 04:53:00
11:53 PM,69.1,46.9,45,29.93,10.0,Calm,Calm,-,N/A,,Clear,0,2013-08-25 05:53:00